TimeAST,TemperatureF,Dew PointF,Humidity,Sea Level PressureIn,VisibilityMPH,Wind Direction,Wind SpeedMPH,Gust SpeedMPH,PrecipitationIn,Events,Conditions,WindDirDegrees,DateUTC
12:00 AM,78.8,75.2,89,29.89,6.2,Variable,2.3,-,N/A,,Scattered Clouds,0,2013-11-16 04:00:00
1:00 AM,78.8,75.2,89,29.86,6.2,Variable,2.3,-,N/A,,Scattered Clouds,0,2013-11-16 05:00:00
2:00 AM,77,74,90,29.86,11,Calm,Calm,,,,Widespread Dust,,2013-11-16 06:00:00
2:00 AM,77.0,75.2,94,29.86,6.2,Calm,Calm,-,N/A,,Partly Cloudy,0,2013-11-16 06:00:00
3:00 AM,77.0,75.2,94,29.83,6.2,ENE,5.8,-,N/A,,Partly Cloudy,60,2013-11-16 07:00:00
4:00 AM,75.2,73.4,94,29.83,6.2,Calm,Calm,-,N/A,,Partly Cloudy,0,2013-11-16 08:00:00
5:00 AM,75,73,92,29.84,11,Calm,Calm,,,,Widespread Dust,,2013-11-16 09:00:00
5:00 AM,75.2,73.4,94,29.83,6.2,Calm,Calm,-,N/A,,Partly Cloudy,0,2013-11-16 09:00:00
6:00 AM,75.2,73.4,94,29.86,6.2,Calm,Calm,-,N/A,,Partly Cloudy,0,2013-11-16 10:00:00
7:00 AM,77.0,73.4,89,29.86,6.2,Calm,Calm,-,N/A,,Partly Cloudy,0,2013-11-16 11:00:00
8:00 AM,82,77,79,29.91,12,Calm,Calm,,,,Widespread Dust,,2013-11-16 12:00:00
8:00 AM,82.4,77.0,84,29.89,6.2,Calm,Calm,-,N/A,,Partly Cloudy,0,2013-11-16 12:00:00
9:00 AM,84.2,75.2,74,29.92,6.2,ENE,5.8,-,N/A,,Partly Cloudy,60,2013-11-16 13:00:00
10:00 AM,84.2,75.2,74,29.92,6.2,Variable,2.3,-,N/A,,Partly Cloudy,0,2013-11-16 14:00:00
11:00 AM,85,76,69,29.90,14,,2.3,,,,Widespread Dust,,2013-11-16 15:00:00
11:00 AM,86.0,77.0,74,29.89,6.2,Variable,2.3,-,N/A,,Partly Cloudy,0,2013-11-16 15:00:00
12:00 PM,86.0,77.0,74,29.86,6.2,Calm,Calm,-,N/A,,Partly Cloudy,0,2013-11-16 16:00:00
1:00 PM,86.0,77.0,74,29.86,6.2,Calm,Calm,-,N/A,,Scattered Clouds,0,2013-11-16 17:00:00
2:00 PM,86,77,69,29.83,16,SW,8.1,,,,,220,2013-11-16 18:00:00
2:00 PM,86.0,77.0,74,29.83,6.2,SW,8.1,-,N/A,,Partly Cloudy,220,2013-11-16 18:00:00
3:00 PM,86.0,77.0,74,29.80,6.2,North,6.9,-,N/A,,Scattered Clouds,360,2013-11-16 19:00:00
4:00 PM,84.2,77.0,79,29.83,6.2,NNE,9.2,-,N/A,,Scattered Clouds,20,2013-11-16 20:00:00
5:00 PM,84,76,70,29.83,17,SE,5.8,,,,Partly Cloudy,130,2013-11-16 21:00:00
5:00 PM,84.2,75.2,74,29.83,6.2,SE,5.8,-,N/A,,Scattered Clouds,130,2013-11-16 21:00:00
6:00 PM,80.6,73.4,79,29.83,6.2,Calm,Calm,-,N/A,,Partly Cloudy,0,2013-11-16 22:00:00
7:00 PM,80.6,75.2,84,29.86,6.2,Calm,Calm,-,N/A,,Partly Cloudy,0,2013-11-16 23:00:00
8:00 PM,79,74,80,29.86,16,ENE,5.8,,,,Scattered Clouds,70,2013-11-17 00:00:00
8:00 PM,78.8,73.4,83,29.86,6.2,ENE,5.8,-,N/A,,Partly Cloudy,70,2013-11-17 00:00:00
9:00 PM,78.8,73.4,83,29.86,6.2,NE,4.6,-,N/A,,Partly Cloudy,50,2013-11-17 01:00:00
10:00 PM,78.8,73.4,83,29.86,6.2,NNE,4.6,-,N/A,,Partly Cloudy,30,2013-11-17 02:00:00
11:00 PM,78,74,82,29.87,16,ENE,4.6,,,,Scattered Clouds,60,2013-11-17 03:00:00
11:00 PM,78.8,73.4,83,29.86,6.2,ENE,4.6,-,N/A,,Partly Cloudy,60,2013-11-17 03:00:00